Location: Asbacherhof
(48.8543°N, 10.7903°E)
Time: 22:59:50
(UTC+00:00)

USA 32 - Pass Details

Date: 26 May 2022
Orbit: 775 x 784 km, 85.0° (Epoch: 25 June)

Event Time Altitude Azimuth Distance (km) Brightness Sun altitude
Exits shadow 00:34:56 32° 200° (SSW) 1,330 4.7 -17.8°
Maximum altitude 00:37:25 71° 277° (W) 829 4.1 -17.6°
Drops below altitude 10° 00:42:41 10° 2° (N) 2,350 7.6 -17.3°
Sets 00:45:04 0° 5° (N) 3,281 8.7 -17.2°
